This demonstration page uses our WeatherBlox Daily Observations layout. Learn more.

Left ArrowRight Arrow

Hourly Observations for November 25, 2016

Temp ( °F °C ) Dew Point ( °F °C ) Humidity (%) Winds ( mph kmh ) Pressure ( in mb ) Visibility ( mi km ) Precip ( " mm )
12:03 am 00:03 Cloudy with Mist and Fog 51 10.6 50 10 96 96 E 3 6 30.24 1024 1 2 0.00 0.00
12:59 am 00:59 Mostly Cloudy with Mist and Fog 53 11.7 51 10.6 93 93 Calm 30.22 1023 1 2 0.00 0.00
1:59 am 01:59 Mostly Cloudy with Mist and Fog 51 10.6 50 10 96 96 Calm 30.23 1024 1 2 0.00 0.00
2:06 am 02:06 Mostly Cloudy with Fog 50 10 49 9.4 96 96 NE 3 6 30.21 1023 1 1 0.00 0.00
2:29 am 02:29 Partly Cloudy with Mist and Fog 51 10.6 49 9.4 92 92 Calm 30.24 1024 3 5 0.00 0.00
2:59 am 02:59 Mostly Cloudy with Mist and Fog 52 11.1 50 10 93 93 Calm 30.24 1024 3 5 0.00 0.00
3:36 am 03:36 Mostly Cloudy with Fog 49 9.4 48 8.9 97 97 Calm 30.24 1024 0 0 0.00 0.00
3:59 am 03:59 Mostly Cloudy with Fog 51 10.6 49 9.4 92 92 Calm 30.24 1024 0 0 0.00 0.00
4:16 am 04:16 Mostly Cloudy with Mist and Fog 51 10.6 49 9.4 92 92 SE 3 6 30.24 1024 1 1 0.00 0.00
4:20 am 04:20 Mostly Cloudy with Mist and Fog 52 11.1 50 10 93 93 ESE 3 6 30.24 1024 1 2 0.00 0.00
4:28 am 04:28 Mostly Cloudy with Mist and Fog 51 10.6 50 10 96 96 E 6 9 30.24 1024 2 3 0.00 0.00
4:32 am 04:32 Cloudy with Mist and Fog 51 10.6 49 9.4 92 92 E 6 9 30.24 1024 2 2 0.00 0.00
4:59 am 04:59 Mostly Cloudy with Mist and Fog 53 11.7 51 10.6 93 93 ESE 6 9 30.23 1024 3 5 0.00 0.00
5:59 am 05:59 Mostly Clear with Mist and Fog 52 11.1 51 10.6 97 97 ESE 6 9 30.24 1024 4 6 0.00 0.00
6:59 am 06:59 Mostly Cloudy 53 11.7 50 10 89 89 E 3 6 30.25 1024 7 11 0.00 0.00
7:59 am 07:59 Mostly Cloudy with Mist and Fog 54 12.2 52 11.1 93 93 Calm 30.27 1025 5 8 0.00 0.00
8:59 am 08:59 Cloudy with Mist and Fog 56 13.3 53 11.7 90 90 ESE 6 9 30.25 1025 4 6 0.00 0.00
9:59 am 09:59 Cloudy with Mist and Fog 57 13.9 54 12.2 90 90 ESE 3 6 30.26 1025 5 8 0.00 0.00
10:59 am 10:59 Cloudy with Mist and Fog 59 15 55 12.8 87 87 ESE 3 6 30.23 1024 5 8 0.00 0.00
11:59 am 11:59 Mostly Cloudy 63 17.2 55 12.8 76 76 SSE 9 15 30.20 1023 8 13 0.00 0.00
12:59 pm 12:59 Cloudy 64 17.8 55 12.8 73 73 SSE 7 11 30.17 1022 8 13 0.00 0.00
1:59 pm 13:59 Mostly Cloudy 64 17.8 56 13.3 75 75 SE 3 6 30.15 1021 8 13 0.00 0.00
2:59 pm 14:59 Mostly Cloudy 65 18.3 57 13.9 76 76 VRB 3 6 30.14 1021 7 11 0.00 0.00
3:59 pm 15:59 Mostly Cloudy 62 16.7 56 13.3 80 80 VRB 3 6 30.12 1020 7 11 0.00 0.00
4:59 pm 16:59 Mostly Cloudy 58 14.4 53 11.7 84 84 VRB 5 7 30.13 1020 7 11 0.00 0.00
5:59 pm 17:59 Mostly Cloudy with Mist and Fog 55 12.8 53 11.7 93 93 NNE 6 9 30.14 1021 5 8 0.00 0.00
6:59 pm 18:59 Mostly Cloudy with Mist and Fog 55 12.8 52 11.1 90 90 Calm 30.14 1021 6 10 0.00 0.00
7:47 pm 19:47 Mostly Cloudy with Mist and Fog 52 11.1 50 10 93 93 SE 3 6 30.12 1020 1 2 0.00 0.00
7:59 pm 19:59 Mostly Cloudy with Mist and Fog 53 11.7 51 10.6 93 93 ESE 3 6 30.13 1020 1 2 0.00 0.00
8:15 pm 20:15 Mostly Cloudy with Mist and Fog 53 11.7 51 10.6 93 93 Calm 30.12 1020 3 5 0.00 0.00
8:59 pm 20:59 Mostly Cloudy with Mist and Fog 52 11.1 50 10 93 93 Calm 30.13 1020 4 6 0.00 0.00
9:45 pm 21:45 Mostly Cloudy with Mist and Fog 51 10.6 49 9.4 92 92 Calm 30.12 1020 1 2 0.00 0.00
9:59 pm 21:59 Mostly Cloudy with Mist and Fog 52 11.1 50 10 93 93 S 3 6 30.11 1020 1 2 0.00 0.00
10:01 pm 22:01 Cloudy with Mist and Fog 52 11.1 50 10 93 93 S 3 6 30.12 1020 2 3 0.00 0.00
10:13 pm 22:13 Cloudy with Mist and Fog 53 11.7 51 10.6 93 93 Calm 30.12 1020 3 5 0.00 0.00
10:59 pm 22:59 Mostly Cloudy with Mist and Fog 54 12.2 52 11.1 93 93 N 6 9 30.11 1020 5 8 0.00 0.00
11:50 pm 23:50 Cloudy with Mist and Fog 54 12.2 52 11.1 93 93 Calm 30.09 1019 3 5 0.00 0.00
11:59 pm 23:59 Cloudy with Mist and Fog 54 12.2 52 11.1 93 93 Calm 30.10 1019 3 5 0.00 0.00

Powered by AerisWeather